Temperature
6 6 6 6 5 5 5 5 4 4 4 4 5 5 5 5 5 5 5 5 5 5 5 5 5 5 5 5 5 5 5 5 5 5 5 5 5 5
6 6 6 6 5 5 5 5 4 4 4 4 5 5 5 5 5 5 5 5 5 5 5 5 5 5 5 5 5 5 5 5 5 5 5 5 5 5
6 6 6 5 5 5 5 5 4 4 4 4 4 4 4 4 4 4 4 5 5 4 4 4 4 4 4 4 4 4 4 4 4 4 4 4 4 4
6 6 5 5 5 5 5 4 4 4 4 4 4 4 4 4 4 4 4 4 4 4 4 4 4 4 4 4 4 4 4 4 4 4 4 4 4 4
5 5 5 5 5 4 4 4 4 4 4 4 4 4 4 4 4 4 4 4 4 4 4 4 4 4 4 4 4 4 4 4 4 4 3 3 4 4
5 5 5 4 4 4 4 4 4 4 4 4 4 4 4 3 3 3 3 3 3 3 3 3 3 3 3 3 3 3 3 3 3 3 3 3 3 3
4 4 4 4 4 4 4 4 4 4 4 3 4 3 3 3 3 3 3 3 3 3 3 3 3 3 3 3 3 3 3 3 3 3 3 3 3 3
4 4 4 4 4 4 4 4 4 3 3 3 3 3 3 3 3 3 3 3 3 3 2 3 3 3 3 3 3 3 3 3 3 3 3 3 2 2
4 3 3 3 3 3 3 3 3 3 3 3 3 3 3 3 3 3 2 2 2 2 2 2 3 3 3 3 2 2 2 2 2 2 2 2 2 2
3 3 3 3 3 3 3 3 3 3 3 3 3 3 3 3 2 2 2 2 2 2 1 1 2 2 2 2 2 2 2 2 2 2 2 2 2 2
3 3 3 3 3 3 3 3 3 3 3 2 2 2 2 2 2 2 2 2 2 2 1 1 1 2 2 2 2 2 2 2 2 1 1 1 1 1
3 3 2 2 3 3 3 3 2 2 2 2 2 2 2 2 2 2 1 1 1 1 1 1 1 1 1 2 2 2 2 1 1 1 1 1 1 1
2 2 2 2 2 2 2 2 2 2 2 2 2 2 2 2 2 2 1 1 1 1 0 0 0 0 0 1 2 1 1 1 1 1 1 1 0 0
2 2 2 2 2 2 2 2 2 2 2 2 2 1 1 1 1 1 1 1 0 0 0 -0 -0 -0 -0 0 1 1 1 1 1 0 0 0 0 0
1 1 1 1 2 2 1 1 1 1 1 1 1 1 1 1 1 1 1 1 1 0 0 0 -0 -0 -0 -0 -0 0 0 0 0 -0 -0 0 -0 -0
1 1 1 1 1 1 1 1 1 1 1 1 1 1 1 1 1 1 1 0 1 1 0 0 0 -0 -0 -0 -0 -1 -1 -1 -1 -0 -0 0 -0 -0
1 1 1 1 1 1 1 1 1 1 1 1 0 0 0 0 0 0 0 0 0 0 0 0 0 -0 -0 -0 -0 -1 -1 -1 -1 -1 -1 -1 -0 -0
1 1 1 0 0 0 1 1 1 0 0 0 0 0 0 -0 -0 -0 -0 -0 -0 -0 -0 -0 -0 -0 0 -0 -1 -1 -1 -1 -1 -1 -1 -1 -1 -0
0 0 0 0 0 0 0 0 0 0 0 0 -0 -0 -0 -1 -1 -1 -1 -1 -1 -1 -1 -1 -1 -1 -2 -2 -1 -1 -2 -2 -2 -1 -2 -2 -1 -1
-0 -0 -0 -0 -0 -0 -0 -0 -0 -0 -0 -0 -0 -1 -1 -1 -1 -1 -1 -1 -1 -1 -1 -1 -2 -2 -2 -3 -2 -1 -2 -2 -2 -2 -2 -2 -1 -1
-1 -1 -1 -1 -1 -1 -1 -1 -1 -1 -0 -1 -1 -1 -1 -1 -1 -1 -1 -1 -1 -1 -1 -2 -2 -2 -2 -3 -3 -2 -1 -2 -2 -3 -2 -2 -2 -1
-1 -1 -1 -1 -1 -1 -1 -1 -1 -1 -1 -1 -1 -1 -1 -1 -1 -1 -1 -1 -2 -2 -2 -2 -2 -2 -2 -3 -3 -2 -2 -1 -1 -2 -2 -2 -3 -3
-2 -2 -2 -1 -1 -1 -1 -1 -1 -1 -1 -1 -1 -1 -1 -1 -2 -2 -2 -2 -2 -2 -2 -2 -2 -2 -2 -3 -3 -3 -2 -2 -2 -2 -2 -2 -2 -2
Wind_Speed
2 2 1 1 1 1 1 1 2 4 5 3 3 3 4 5 8 8 7 10 12 12 11 10 11 11 11 12 12 13 13 13 12 11 11 12 13 13
1 2 1 1 1 1 1 2 2 2 4 3 3 4 4 5 8 8 7 11 12 11 11 11 11 11 12 12 13 13 12 12 11 11 11 11 12 13
1 2 2 1 1 2 2 2 2 2 4 4 3 3 4 5 5 6 7 6 8 11 12 12 12 12 12 12 12 13 12 12 12 12 12 12 12 13
2 2 2 2 2 2 2 2 2 2 2 5 4 3 4 4 4 5 5 6 6 9 11 12 12 12 12 13 13 13 13 13 13 12 13 13 13 14
3 2 2 2 3 2 2 2 2 2 2 2 4 3 3 3 4 5 5 4 6 8 10 11 12 13 13 13 13 14 13 13 13 12 13 13 14 15
2 2 2 2 3 3 2 3 2 2 2 1 3 3 3 3 3 4 5 5 5 6 8 9 11 12 13 13 13 14 14 13 13 13 13 13 14 15
2 2 2 2 2 2 2 2 2 2 1 1 2 3 3 3 4 3 5 5 5 4 5 6 6 6 8 10 11 13 14 14 14 14 14 14 14 15
2 2 1 1 2 2 3 3 3 2 2 1 2 3 4 3 3 4 4 5 4 4 5 6 5 5 6 6 10 13 14 14 15 14 14 14 14 15
1 1 2 2 2 1 2 3 3 4 3 2 2 3 3 3 3 3 4 4 4 4 5 5 5 5 6 7 11 13 14 14 15 16 15 15 14 14
1 1 1 2 2 1 1 2 2 3 3 2 1 2 2 2 1 2 3 3 3 3 3 3 4 5 7 6 9 12 14 15 15 16 16 16 16 15
1 1 1 1 2 1 1 1 2 3 4 5 4 4 4 4 4 3 3 3 4 3 3 2 3 5 5 4 7 11 14 14 15 16 16 16 17 15
1 1 1 2 2 1 1 1 1 2 2 3 4 5 4 4 6 3 1 2 3 2 3 3 3 4 4 3 4 7 10 13 15 16 16 16 16 11
1 1 1 3 3 1 0 1 1 0 1 1 2 3 3 3 4 4 3 1 2 2 2 3 2 3 3 4 5 5 6 7 9 11 14 16 16 12
1 1 1 2 3 2 1 2 2 2 1 1 2 2 3 3 3 4 3 3 2 2 3 2 2 3 3 4 5 6 6 7 7 7 9 14 15 15
1 1 2 2 3 2 2 3 2 1 1 1 1 1 2 2 2 3 4 4 4 3 3 2 2 3 3 4 5 6 6 6 6 6 8 8 7 9
1 1 2 3 3 3 2 2 1 1 1 1 1 1 2 2 2 3 3 3 3 4 4 5 4 3 3 4 4 5 5 5 7 8 8 7 7 7
1 1 1 1 2 2 2 2 1 2 2 2 1 2 2 2 3 3 3 3 3 4 5 5 6 4 3 3 3 4 5 5 6 7 7 8 7 7
2 1 1 1 1 1 1 1 1 1 2 2 1 1 1 2 2 3 3 2 3 3 4 5 5 5 4 3 2 3 4 4 6 7 6 6 8 8
2 1 1 0 0 1 1 1 1 1 1 1 1 1 1 2 2 2 2 2 3 3 4 4 4 4 5 6 5 3 4 6 7 7 6 5 7 9
1 1 1 1 1 1 1 1 1 1 1 1 1 1 1 1 1 2 2 2 3 3 4 4 3 3 3 4 4 5 7 5 6 7 7 6 5 8
1 1 1 1 1 1 1 1 1 1 1 1 1 1 1 1 1 2 2 3 3 2 3 4 4 7 4 2 4 5 5 8 8 6 7 6 6 6
0 0 0 0 0 0 0 0 0 1 1 1 1 1 1 1 1 1 1 2 2 2 3 4 4 4 3 3 5 6 7 8 10 11 8 5 3 3
0 0 0 0 0 0 0 0 0 0 1 1 1 1 1 1 1 1 1 1 2 2 3 4 4 3 3 3 4 6 7 8 7 7 7 10 9 10
Wind_Direction
231 240 263 275 274 290 286 273 283 301 304 293 315 322 340 343 338 336 338 346 351 350 349 349 347 345 343 342 341 339 336 334 331 328 325 323 322 318
224 241 267 287 289 283 274 275 265 273 290 299 305 316 328 335 337 344 345 347 351 350 352 349 348 347 345 345 341 339 339 338 336 332 331 331 329 327
237 246 259 278 281 277 275 277 279 274 286 304 313 322 326 332 337 345 347 345 347 350 355 355 352 349 347 348 346 345 342 339 337 337 336 334 331 329
227 231 250 260 270 275 270 269 275 271 275 300 313 321 319 325 336 342 348 349 349 346 353 355 355 356 355 353 353 351 348 346 341 339 336 333 331 329
220 224 241 246 260 277 281 286 288 297 292 288 307 316 321 331 342 339 337 339 344 342 349 351 351 352 353 354 354 353 351 349 346 342 337 334 333 331
231 226 236 243 252 264 275 283 294 299 306 300 312 319 322 323 340 336 334 337 338 340 345 344 345 348 349 349 350 350 350 345 344 343 339 336 335 334
254 232 239 264 292 295 295 295 301 300 305 308 309 322 327 330 323 318 323 327 330 340 339 336 337 340 342 343 346 348 348 348 345 340 337 336 335 334
266 248 255 254 293 315 328 333 325 288 271 283 311 304 303 308 315 322 327 334 327 338 339 324 330 327 332 337 341 346 347 348 348 345 340 337 334 334
281 266 275 293 301 281 334 350 342 337 323 275 267 285 292 299 305 313 321 326 313 320 336 316 322 320 320 330 337 343 347 348 349 348 346 342 337 336
298 291 276 283 278 316 351 352 349 346 334 343 278 288 309 313 295 291 306 331 328 337 353 320 319 318 319 319 333 345 349 350 349 350 350 348 345 342
320 314 319 294 327 36 80 350 345 346 11 20 14 18 15 22 33 29 8 360 339 329 356 345 321 321 313 307 331 345 347 347 347 348 348 347 345 343
331 340 14 1 341 53 177 197 277 319 2 14 23 26 34 37 35 39 3 343 336 322 337 347 326 339 327 308 320 337 343 343 346 346 347 347 346 345
321 333 334 1 6 7 37 223 226 58 41 41 32 25 21 24 21 24 20 344 325 302 311 343 329 335 315 308 312 324 339 338 341 342 346 349 348 348
286 305 330 2 19 32 77 61 71 69 69 58 42 24 13 5 357 5 14 18 7 289 298 320 314 313 319 314 310 321 328 333 341 342 343 345 348 348
329 1 17 34 37 41 57 63 62 66 73 58 33 357 346 343 0 10 14 18 10 354 343 322 307 303 299 296 306 318 323 326 338 344 342 341 341 343
32 55 62 65 47 40 60 51 39 54 68 53 13 1 2 8 8 3 357 355 356 345 345 343 326 312 306 295 294 307 317 317 331 337 335 334 334 335
75 72 60 55 43 26 23 28 35 46 42 30 41 27 15 12 1 358 359 357 355 340 340 344 343 322 292 283 307 313 320 322 324 333 338 337 333 334
102 121 122 90 57 23 12 18 24 27 26 35 37 24 13 3 356 355 358 355 346 340 341 342 347 350 349 329 277 306 328 326 328 331 335 334 331 333
92 103 109 92 348 356 5 1 351 360 18 32 27 13 6 352 349 349 351 354 347 342 342 344 353 1 359 344 324 323 329 328 333 335 335 330 321 320
61 77 43 18 9 3 356 353 0 19 25 7 4 1 353 339 339 339 339 341 340 346 348 350 350 344 328 312 307 312 320 318 326 330 331 326 316 310
42 29 13 354 359 354 3 14 16 352 345 335 322 331 326 332 319 322 330 344 353 349 342 332 315 322 316 317 324 327 325 326 321 311 321 329 334 341
12 326 317 301 327 360 17 27 11 2 343 306 297 306 305 302 296 304 323 332 332 333 326 325 329 339 351 346 334 328 329 333 336 333 322 311 319 332
257 288 303 291 300 291 296 264 264 293 303 299 284 280 277 289 293 295 311 328 337 347 348 345 348 349 343 336 334 332 331 335 341 346 341 335 324 306
Height
1502 1502 1501 1501 1501 1500 1499 1498 1497 1493 1490 1489 1487 1486 1484 1482 1479 1477 1474 1471 1469 1466 1464 1462 1460 1457 1455 1453 1451 1449 1447 1445 1443 1442 1440 1438 1436 1434
1499 1499 1498 1498 1498 1497 1497 1496 1495 1493 1489 1487 1486 1484 1482 1480 1478 1475 1472 1470 1467 1464 1462 1460 1458 1455 1453 1451 1449 1446 1444 1442 1439 1438 1436 1434 1432 1430
1496 1496 1495 1495 1495 1494 1494 1493 1492 1491 1488 1485 1484 1482 1480 1478 1476 1473 1471 1468 1466 1463 1461 1458 1456 1453 1451 1448 1446 1443 1441 1438 1436 1434 1432 1430 1428 1426
1493 1493 1492 1492 1492 1491 1491 1490 1489 1488 1486 1483 1481 1480 1478 1476 1474 1472 1469 1467 1465 1462 1459 1457 1454 1451 1449 1446 1443 1441 1438 1435 1433 1431 1429 1427 1424 1422
1490 1489 1489 1489 1488 1488 1488 1487 1486 1486 1484 1482 1479 1477 1476 1474 1472 1470 1468 1465 1463 1461 1458 1455 1453 1450 1447 1444 1441 1438 1435 1433 1430 1428 1426 1423 1421 1418
1487 1486 1486 1486 1485 1485 1485 1484 1484 1482 1481 1479 1477 1475 1474 1472 1470 1467 1465 1463 1461 1459 1456 1454 1451 1448 1445 1442 1440 1436 1433 1430 1428 1425 1423 1420 1417 1415
1483 1483 1483 1483 1483 1483 1482 1481 1481 1479 1478 1476 1475 1473 1471 1470 1468 1466 1464 1461 1459 1457 1454 1451 1449 1446 1443 1440 1437 1434 1431 1428 1425 1422 1420 1417 1414 1411
1480 1480 1480 1480 1480 1480 1479 1479 1478 1477 1475 1474 1473 1471 1470 1469 1467 1465 1463 1460 1456 1455 1452 1450 1448 1445 1442 1439 1436 1433 1429 1426 1423 1419 1416 1413 1411 1408
1477 1477 1477 1477 1477 1477 1476 1476 1475 1474 1474 1473 1471 1470 1469 1468 1466 1464 1462 1460 1457 1455 1452 1448 1446 1443 1441 1438 1435 1431 1428 1424 1421 1417 1414 1411 1408 1405
1474 1474 1474 1474 1474 1474 1473 1472 1472 1471 1471 1471 1470 1469 1468 1467 1465 1464 1461 1459 1457 1455 1452 1448 1444 1442 1439 1436 1433 1430 1426 1423 1419 1416 1412 1409 1405 1402
1471 1471 1471 1471 1472 1471 1471 1470 1469 1468 1468 1468 1468 1467 1466 1465 1464 1462 1459 1457 1454 1452 1451 1448 1444 1440 1437 1435 1432 1429 1425 1422 1418 1414 1411 1407 1403 1400
1468 1468 1468 1469 1469 1468 1468 1467 1466 1465 1466 1465 1465 1465 1464 1463 1462 1460 1458 1456 1454 1451 1450 1447 1444 1441 1436 1433 1431 1428 1424 1420 1417 1413 1409 1405 1401 1397
1465 1465 1465 1466 1466 1465 1465 1465 1464 1464 1464 1463 1463 1462 1461 1461 1460 1458 1457 1456 1454 1452 1450 1447 1444 1441 1438 1433 1429 1427 1423 1419 1415 1412 1408 1404 1400 1396
1463 1463 1463 1463 1463 1463 1462 1462 1462 1462 1462 1461 1461 1460 1459 1459 1458 1457 1456 1455 1453 1451 1449 1447 1444 1441 1437 1433 1429 1425 1422 1419 1415 1411 1407 1403 1399 1395
1461 1461 1461 1461 1460 1460 1460 1460 1460 1460 1459 1459 1459 1458 1458 1457 1457 1455 1454 1453 1452 1450 1448 1445 1443 1440 1437 1433 1429 1425 1421 1417 1414 1410 1406 1402 1397 1393
1458 1458 1458 1458 1459 1458 1458 1458 1458 1458 1458 1458 1457 1457 1457 1456 1455 1454 1452 1451 1449 1448 1446 1444 1441 1439 1435 1433 1429 1425 1422 1418 1413 1409 1405 1401 1398 1394
1456 1456 1456 1456 1456 1456 1456 1456 1456 1456 1456 1456 1456 1455 1455 1454 1453 1452 1451 1449 1448 1445 1443 1442 1440 1438 1435 1432 1428 1425 1421 1417 1414 1409 1404 1400 1397 1394
1454 1453 1453 1453 1454 1454 1454 1454 1455 1455 1455 1455 1455 1454 1453 1453 1452 1451 1450 1448 1446 1445 1442 1440 1438 1435 1433 1431 1429 1425 1421 1417 1413 1409 1405 1400 1396 1394
1452 1451 1452 1452 1452 1452 1453 1453 1453 1454 1454 1454 1453 1453 1452 1452 1451 1450 1448 1447 1446 1444 1442 1440 1437 1434 1431 1429 1427 1425 1421 1416 1412 1409 1405 1402 1397 1394
1450 1450 1450 1450 1451 1451 1451 1451 1452 1452 1452 1452 1452 1451 1451 1450 1449 1448 1447 1446 1445 1443 1441 1440 1437 1435 1433 1431 1427 1424 1422 1417 1413 1408 1405 1402 1398 1395
1448 1448 1448 1449 1449 1449 1449 1450 1450 1450 1450 1450 1450 1449 1449 1449 1448 1447 1446 1445 1444 1442 1441 1439 1437 1436 1433 1430 1427 1424 1421 1418 1414 1410 1406 1402 1398 1394
1446 1446 1447 1447 1447 1447 1448 1448 1448 1448 1448 1448 1448 1448 1447 1447 1447 1446 1445 1444 1443 1442 1440 1439 1437 1434 1432 1430 1426 1423 1420 1418 1415 1412 1408 1405 1401 1396
1444 1444 1444 1445 1445 1445 1445 1445 1446 1446 1446 1446 1446 1446 1445 1445 1445 1445 1444 1443 1442 1441 1439 1437 1435 1433 1431 1429 1426 1423 1420 1417 1414 1411 1409 1406 1403 1400